Showing default

HAWK-8B, 59445

Orbit data source: Space-Track

HAWK-8B, 59445 is a payload satellite owned by HawkEye 360 (US) in LEO that was launched on Sun, 07 Apr 2024 UTC via an FALCON 9 launch vehicle from the Air Force Eastern Test Range (AFETR). Payload-class satellites include a variety of spacecraft equipped with specific instruments for various scientific and technological missions. These include communications satellites like Starlink; space stations such as the ISS; scientific satellites like the Hubble; Earth observation satellites from companies like Planet Labs, Umbra, and HawkEye 360; GPS; miniature CubeSats for education and research; and military/defense satellites.

Loading next visibility...
Identifier
59445, 2024-066D
Orbit
LEO
Country
Flag of USUS
Related business
Manufacturer
UTIAS-SFL
Mission
Operational Commercial Sigint
Bus & Motor
HAWK2G, Unknown motor
Mass
31 kg wet, 30 kg dry
Launch date (UTC)
2024-04-07 (2 years ago)
Launch vehicle
FALCON 9
Launch site
Air Force Eastern Test Range (AFETR)
Object type
Payload
Rocket body
Debris
Shape & HBR
Box + 2 Pan, 1.0 m
Radar Cross Section
0.240 m², Medium (>0.1 m² and < 1m²)

Expand to show TLE details & history
Last TLE update: 17 hours ago

TLE from 17 hours ago
0 HAWK-8B
1 59445U 24066D   26036.87805744  .00002497  00000-0  22387-3 0  9992
2 59445  45.6180 236.8727 0002401  84.2317 275.8838 14.98625765100128
Epoch: 2026-02-05T21:04Z
TLE epoch observation values (Epoch: 2026-02-05T21:04:24.162Z)
Latitude
-0.00003°
Longitude
144.74803°
Altitude
571.038 km
Speed
7.577 km/s
True Right ascension
15h 47m 29s
True Declination
0° 00' 00"
Sunlit
Object was in daylight at epoch
Visualization orbit readout
Latitude
Unknown
Longitude
Unknown
Altitude
Unknown
Speed
Unknown
Apparent Right ascension
Unknown
Apparent Declination
Unknown
Sunlit
N/A
Visualization observer readout
Local Sidereal Time
16:05:50
Azimuth
Unknown
Elevation
Unknown
Doppler factor
Unknown
Orbital elements
Apogee altitude
574.297 km
Perigee altitude
570.959 km
Semi-major axis
6,950.765 km
Eccentricity
0.00024
Inclination
45.618°
RAAN
236.8727°
Arg. of periapsis
84.2317°
True anomaly
275.85643°
Mean anomaly
275.8838°
Eccentric anomaly
275.87012°
Mean motion
3.74537 °/min
Orbital period
96.12 mins
BSTAR
0.00022387
Loading maneuver chart data...
Computing Atmospheric mass density...
Loading historical data...
Loading historical data...
Loading historical data...
Loading historical data...
Loading historical data...
Loading historical data...
Loading historical data...

Documentation

Showing up to 5 results
|